FENGYUN 4A (41882 NORAD) Tracking and Keplerian Element Data

This shows tracking and keplerian element data for the satellite.

Feedback or suggestion? Click here.




ElementValue
Catalog41882
NameFENGYUN 4A
Epoch Orbit1222
Epoch Day90.40188443
Epoch Year2020
RAAN86.3824
Inclination0.1662
Eccentricity0.0005223
Argument of Perigee29.0027
Mean Anonmoly322.159
Mean Motion1.00270073
Decay Rate-3.3E-06
L11 41882U 16077A 20090.40188443 -.00000330 00000-0 00000-0 0 9994
L22 41882 0.1662 86.3824 0005223 29.0027 322.1590 1.00270073 12222

Live tracking and technical data element details for FENGYUN 4A (NORAD 41882). FENGYUN 4A can be tracked NOW for your location showing map with azimuth and elevation plus other details from your city location.

Track the satellite on the map from your city or location and see movement details for azimuth, elevation, latitude, longitude, range, height, and movement on the map or in text.







IsCatalogInMostPopularTable: catalog: 41882, numindb: 357
Update: records affected: 1



GetName: 41882 FENGYUN 4A

Hit Count: updated at: Fri, 03 Apr 2020 08:49:22 GMT